BEL27A EBBR-DGAA

Flight info

Callsign BEL27A
Flight time N/A
Altitude 33000
Route CIV N872 LESDO DCT KOVIN DCT DUCRA/N0477F370 UM728 RESMI UN857 DISAK DCT DIRMO DCT ETAMO DCT ADEKA DCT MOKDI DCT MEN DCT BADAM DCT KANIG DCT KENAS N855 GENIO N859 MOGIL UZ333 ZEM/N0469F380 UZ333 KAHIL UB726 GHA/N0469F390 UA615 TMS UA604 EREBO/N0475F400 UY212 DAMNA DCT NY UG855 TAMIL UA603 LITEX LITEX1B
Aircraft A333/H-SDE3GHIJ2J3J5M1RVWXY/LB2D1

Departure

Time 2026-05-04 00:22
Airport Brussels Airport (EBBR)

Arrival

Time N/A
Airport Kotoka International Airport (DGAA)
Time Latitude Longitude Altitude Speed Heading
2026-05-03 23:54 50.90539 4.49032 119 ft 0 kts 189°
2026-05-04 00:10 50.90546 4.49034 124 ft 4 kts 191°
2026-05-04 00:10 50.90572 4.49041 122 ft 4 kts 183°
2026-05-04 00:11 50.90599 4.49042 119 ft 4 kts 177°
2026-05-04 00:11 50.90626 4.49038 119 ft 4 kts 170°
2026-05-04 00:11 50.90633 4.49036 119 ft 0 kts 169°
2026-05-04 00:14 50.90632 4.49037 119 ft 0 kts 169°
2026-05-04 00:14 50.90629 4.49037 119 ft 0 kts 169°
2026-05-04 00:14 50.90628 4.49038 119 ft 1 kts 168°
2026-05-04 00:15 50.90609 4.49057 119 ft 6 kts 137°
2026-05-04 00:15 50.90592 4.49107 123 ft 6 kts 117°
2026-05-04 00:15 50.90559 4.49180 125 ft 12 kts 135°
2026-05-04 00:15 50.90463 4.49268 121 ft 16 kts 154°
2026-05-04 00:16 50.90418 4.49349 126 ft 7 kts 97°
2026-05-04 00:16 50.90435 4.49438 125 ft 10 kts 68°
2026-05-04 00:16 50.90438 4.49555 123 ft 11 kts 118°
2026-05-04 00:16 50.90380 4.49632 124 ft 11 kts 156°
2026-05-04 00:17 50.90299 4.49672 128 ft 13 kts 165°
2026-05-04 00:17 50.90219 4.49723 125 ft 11 kts 148°
2026-05-04 00:17 50.90176 4.49820 130 ft 12 kts 95°
2026-05-04 00:17 50.90214 4.49978 122 ft 19 kts 63°
2026-05-04 00:18 50.90291 4.50190 125 ft 24 kts 48°
2026-05-04 00:18 50.90440 4.50302 126 ft 25 kts 15°
2026-05-04 00:18 50.90614 4.50372 124 ft 27 kts 14°
2026-05-04 00:18 50.90796 4.50448 120 ft 27 kts 14°
2026-05-04 00:19 50.90973 4.50519 121 ft 18 kts 14°
2026-05-04 00:19 50.91088 4.50522 123 ft 17 kts 355°
2026-05-04 00:19 50.91183 4.50478 119 ft 13 kts 328°
2026-05-04 00:19 50.91229 4.50367 119 ft 13 kts 283°
2026-05-04 00:20 50.91229 4.50228 120 ft 13 kts 252°
2026-05-04 00:20 50.91170 4.50152 119 ft 11 kts 197°
2026-05-04 00:20 50.91156 4.50145 119 ft 0 kts 196°
2026-05-04 00:21 50.91078 4.50111 121 ft 34 kts 195°
2026-05-04 00:21 50.90655 4.49943 124 ft 90 kts 194°
2026-05-04 00:21 50.89888 4.49628 143 ft 137 kts 194°
2026-05-04 00:22 50.88899 4.49231 522 ft 149 kts 194°
2026-05-04 00:22 50.87877 4.48840 1103 ft 152 kts 189°
2026-05-04 00:22 50.86884 4.49397 1701 ft 162 kts 140°
2026-05-04 00:22 50.86074 4.50662 2182 ft 165 kts 143°
2026-05-04 00:23 50.85194 4.51828 2701 ft 165 kts 146°
2026-05-04 00:23 50.84273 4.52919 3217 ft 165 kts 148°
2026-05-04 00:23 50.83306 4.54012 3554 ft 181 kts 148°
2026-05-04 00:23 50.82210 4.55238 3785 ft 205 kts 148°
2026-05-04 00:24 50.80974 4.56627 4014 ft 231 kts 147°
2026-05-04 00:24 50.79593 4.58176 4290 ft 253 kts 149°
2026-05-04 00:24 50.77956 4.59127 4777 ft 257 kts 181°
2026-05-04 00:24 50.76264 4.58405 5415 ft 255 kts 216°
2026-05-04 00:25 50.75170 4.56254 6126 ft 256 kts 250°
2026-05-04 00:25 50.74855 4.53486 6843 ft 259 kts 262°
2026-05-04 00:25 50.74601 4.50655 7547 ft 261 kts 258°
2026-05-04 00:25 50.74188 4.47845 8272 ft 264 kts 253°
2026-05-04 00:26 50.73838 4.45994 8768 ft 266 kts 251°
2026-05-04 00:26 50.73235 4.43222 9504 ft 268 kts 248°
2026-05-04 00:26 50.72573 4.40452 10172 ft 273 kts 247°
2026-05-04 00:26 50.71854 4.37584 10477 ft 290 kts 246°
2026-05-04 00:27 50.71069 4.34548 10724 ft 307 kts 246°
2026-05-04 00:27 50.70237 4.31369 10985 ft 324 kts 246°
2026-05-04 00:27 50.69348 4.27995 11245 ft 341 kts 246°
2026-05-04 00:27 50.68418 4.24481 11576 ft 353 kts 246°
2026-05-04 00:28 50.67461 4.20871 12104 ft 359 kts 246°
2026-05-04 00:28 50.66491 4.17221 12731 ft 363 kts 246°
2026-05-04 00:28 50.65509 4.13532 13373 ft 366 kts 246°
2026-05-04 00:28 50.64519 4.09820 13940 ft 370 kts 246°
2026-05-04 00:29 50.63517 4.06072 14521 ft 372 kts 246°
2026-05-04 00:29 50.62508 4.02307 15117 ft 374 kts 245°
2026-05-04 00:29 50.61495 3.98530 15704 ft 376 kts 245°
2026-05-04 00:29 50.60474 3.94729 16281 ft 378 kts 245°
2026-05-04 00:30 50.59446 3.90910 16876 ft 380 kts 245°
2026-05-04 00:30 50.58279 3.87191 17420 ft 380 kts 237°
2026-05-04 00:30 50.56644 3.83927 17975 ft 381 kts 224°
2026-05-04 00:30 50.54530 3.81408 18463 ft 383 kts 211°
2026-05-04 00:31 50.52173 3.79433 18972 ft 385 kts 207°
2026-05-04 00:31 50.49742 3.77701 19463 ft 386 kts 205°
2026-05-04 00:31 50.47267 3.76076 19958 ft 388 kts 204°
2026-05-04 00:31 50.44768 3.74476 20451 ft 389 kts 204°
2026-05-04 00:32 50.42262 3.72861 20907 ft 390 kts 205°
2026-05-04 00:32 50.39755 3.71220 21362 ft 391 kts 205°
2026-05-04 00:32 50.37240 3.69548 21846 ft 392 kts 206°
2026-05-04 00:32 50.34757 3.67878 22270 ft 394 kts 206°
2026-05-04 00:33 50.32203 3.66150 22734 ft 395 kts 206°
2026-05-04 00:33 50.27171 3.62745 23627 ft 398 kts 206°
2026-05-04 00:33 50.24588 3.61001 23995 ft 400 kts 206°
2026-05-04 00:34 50.22030 3.59277 24363 ft 401 kts 206°
2026-05-04 00:34 50.19467 3.57551 24722 ft 403 kts 206°
2026-05-04 00:34 50.16888 3.55819 25086 ft 404 kts 206°
2026-05-04 00:34 50.14304 3.54085 25462 ft 405 kts 206°
2026-05-04 00:35 50.11751 3.52374 25880 ft 404 kts 205°
2026-05-04 00:35 50.09138 3.50626 26262 ft 405 kts 205°
2026-05-04 00:35 50.06574 3.48911 26584 ft 407 kts 205°
2026-05-04 00:35 50.03966 3.47169 26896 ft 409 kts 205°
2026-05-04 00:36 50.01348 3.45422 27231 ft 411 kts 205°
2026-05-04 00:36 49.98716 3.43668 27578 ft 412 kts 205°
2026-05-04 00:36 49.96078 3.41913 27907 ft 414 kts 205°
2026-05-04 00:36 49.93421 3.40146 28236 ft 415 kts 205°
2026-05-04 00:37 49.90760 3.38379 28520 ft 417 kts 205°
2026-05-04 00:37 49.88078 3.36600 28766 ft 420 kts 205°
2026-05-04 00:37 49.85398 3.34825 29195 ft 419 kts 205°
2026-05-04 00:37 49.82723 3.33057 29691 ft 417 kts 205°
2026-05-04 00:38 49.80063 3.31301 30143 ft 415 kts 206°
2026-05-04 00:38 49.77407 3.29548 30471 ft 414 kts 206°
2026-05-04 00:38 49.74754 3.27798 30777 ft 415 kts 206°
2026-05-04 00:38 49.72102 3.26049 31076 ft 415 kts 206°
2026-05-04 00:39 49.69447 3.24301 31375 ft 415 kts 206°
2026-05-04 00:39 49.66787 3.22552 31625 ft 416 kts 206°
2026-05-04 00:39 49.64123 3.20802 31945 ft 416 kts 206°
2026-05-04 00:39 49.61461 3.19057 32254 ft 416 kts 206°
2026-05-04 00:40 49.58795 3.17312 32557 ft 416 kts 206°
2026-05-04 00:40 49.56134 3.15571 32851 ft 416 kts 206°
2026-05-04 00:40 49.53472 3.13832 33148 ft 415 kts 206°
2026-05-04 00:40 49.50818 3.12092 33559 ft 413 kts 207°
2026-05-04 00:41 49.48268 3.10117 33881 ft 409 kts 212°
2026-05-04 00:41 49.45838 3.07844 34080 ft 410 kts 214°
2026-05-04 00:41 49.43430 3.05474 34235 ft 411 kts 214°
2026-05-04 00:41 49.41038 3.03054 34393 ft 412 kts 215°
2026-05-04 00:42 49.38648 3.00609 34590 ft 414 kts 215°
2026-05-04 00:42 49.36251 2.98153 34746 ft 415 kts 215°
2026-05-04 00:42 49.33851 2.95701 34930 ft 416 kts 214°
2026-05-04 00:42 49.31436 2.93242 35081 ft 417 kts 214°
2026-05-04 00:43 49.29019 2.90793 35250 ft 418 kts 214°
2026-05-04 00:43 49.26590 2.88339 35388 ft 419 kts 214°
2026-05-04 00:43 49.24149 2.85878 35536 ft 421 kts 214°
2026-05-04 00:43 49.21702 2.83415 35689 ft 422 kts 214°
2026-05-04 00:44 49.19278 2.80979 35865 ft 422 kts 214°
2026-05-04 00:44 49.16823 2.78515 36007 ft 423 kts 214°
2026-05-04 00:44 49.14360 2.76045 36158 ft 424 kts 213°
2026-05-04 00:44 49.11888 2.73569 36305 ft 425 kts 213°
2026-05-04 00:45 49.09409 2.71089 36443 ft 426 kts 213°
2026-05-04 00:45 49.06931 2.68612 36593 ft 427 kts 213°
2026-05-04 00:45 49.04444 2.66130 36710 ft 428 kts 213°
2026-05-04 00:45 49.01948 2.63641 36858 ft 430 kts 213°
2026-05-04 00:46 48.99440 2.61143 36969 ft 431 kts 213°
2026-05-04 00:46 48.94411 2.56144 36970 ft 432 kts 213°
2026-05-04 00:47 48.89376 2.51152 36967 ft 431 kts 213°
2026-05-04 00:47 48.84346 2.46176 36966 ft 431 kts 213°
2026-05-04 00:48 48.79318 2.41215 36961 ft 431 kts 213°
2026-05-04 00:48 48.74277 2.36252 36962 ft 431 kts 213°
2026-05-04 00:49 48.69244 2.31310 36972 ft 431 kts 213°
2026-05-04 00:49 48.64269 2.26436 36963 ft 431 kts 213°
2026-05-04 00:50 48.59213 2.21587 36962 ft 432 kts 209°
2026-05-04 00:50 48.53663 2.18233 36967 ft 433 kts 197°
2026-05-04 00:51 48.47779 2.16125 36953 ft 435 kts 194°
2026-05-04 00:51 48.41880 2.14277 36955 ft 436 kts 193°
2026-05-04 00:52 48.35941 2.12427 36964 ft 436 kts 194°
2026-05-04 00:52 48.29965 2.10740 36963 ft 438 kts 188°
2026-05-04 00:53 48.23847 2.10930 36963 ft 442 kts 177°
2026-05-04 00:53 48.17754 2.12103 36959 ft 443 kts 175°
2026-05-04 00:54 48.11634 2.13156 36951 ft 441 kts 179°
2026-05-04 00:54 48.05505 2.13658 36985 ft 440 kts 180°
2026-05-04 00:55 47.99428 2.14020 36988 ft 440 kts 181°
2026-05-04 00:55 47.93305 2.14359 36994 ft 440 kts 181°
2026-05-04 00:56 47.87181 2.14707 36996 ft 440 kts 181°
2026-05-04 00:56 47.81060 2.15063 36964 ft 440 kts 181°
2026-05-04 00:57 47.74938 2.15422 36965 ft 440 kts 181°
2026-05-04 00:57 47.68814 2.15779 36965 ft 439 kts 181°
2026-05-04 00:58 47.62772 2.16130 36964 ft 439 kts 181°
2026-05-04 00:58 47.56649 2.16485 36957 ft 439 kts 181°
2026-05-04 00:59 47.50543 2.16837 36969 ft 439 kts 181°
2026-05-04 00:59 47.44433 2.17190 36970 ft 439 kts 181°
2026-05-04 01:00 47.38355 2.17540 36969 ft 439 kts 181°
2026-05-04 01:00 47.32334 2.17885 36972 ft 438 kts 181°
2026-05-04 01:01 47.26246 2.18235 36974 ft 438 kts 181°
2026-05-04 01:01 47.20161 2.18582 36973 ft 438 kts 181°
2026-05-04 01:02 47.14052 2.18930 36985 ft 438 kts 181°
2026-05-04 01:02 47.08024 2.20067 36970 ft 443 kts 169°
2026-05-04 01:03 47.02140 2.23074 36971 ft 447 kts 163°
2026-05-04 01:03 46.96368 2.26461 36973 ft 448 kts 162°
2026-05-04 01:04 46.90568 2.29912 36988 ft 448 kts 163°
2026-05-04 01:04 46.84843 2.33402 36987 ft 451 kts 158°
2026-05-04 01:05 46.79396 2.38121 36968 ft 455 kts 153°
2026-05-04 01:05 46.74102 2.43137 36986 ft 456 kts 152°
2026-05-04 01:06 46.68804 2.48226 36994 ft 454 kts 152°
2026-05-04 01:06 46.63527 2.53263 36988 ft 453 kts 152°
2026-05-04 01:07 46.58240 2.58273 36990 ft 453 kts 152°
2026-05-04 01:07 46.52932 2.63283 36982 ft 454 kts 152°
2026-05-04 01:08 46.47663 2.68246 36987 ft 454 kts 152°
2026-05-04 01:08 46.42337 2.73251 36996 ft 453 kts 152°
2026-05-04 01:09 46.37064 2.78195 36997 ft 453 kts 152°
2026-05-04 01:09 46.31787 2.83131 36994 ft 454 kts 152°
2026-05-04 01:10 46.26479 2.88087 37000 ft 453 kts 152°
2026-05-04 01:10 46.21164 2.93036 36998 ft 453 kts 152°
2026-05-04 01:11 46.15881 2.97943 37005 ft 453 kts 152°
2026-05-04 01:11 46.11492 3.02012 36997 ft 453 kts 152°
2026-05-04 01:12 46.05280 3.07755 37006 ft 454 kts 152°
2026-05-04 01:12 46.00822 3.11869 37012 ft 454 kts 152°
2026-05-04 01:13 45.95298 3.16106 37003 ft 446 kts 165°
2026-05-04 01:13 45.91362 3.17593 37011 ft 439 kts 176°
2026-05-04 01:13 45.89369 3.17878 37020 ft 436 kts 181°
2026-05-04 01:14 45.83308 3.18013 37023 ft 435 kts 184°
2026-05-04 01:14 45.77256 3.17864 37018 ft 435 kts 185°
2026-05-04 01:15 45.71202 3.17716 37015 ft 434 kts 184°
2026-05-04 01:15 45.65153 3.17612 37016 ft 434 kts 184°
2026-05-04 01:16 45.59106 3.17530 37014 ft 435 kts 184°
2026-05-04 01:16 45.53045 3.17452 37000 ft 435 kts 184°
2026-05-04 01:17 45.47006 3.17374 37014 ft 435 kts 184°
2026-05-04 01:17 45.40947 3.17294 37019 ft 435 kts 184°
2026-05-04 01:18 45.34884 3.17215 37020 ft 435 kts 184°
2026-05-04 01:18 45.28866 3.17133 37037 ft 436 kts 184°
2026-05-04 01:19 45.22799 3.17049 37019 ft 437 kts 184°
2026-05-04 01:19 45.16719 3.16970 37015 ft 437 kts 184°
2026-05-04 01:20 45.10628 3.16891 37025 ft 437 kts 184°
2026-05-04 01:20 45.04538 3.16813 37025 ft 437 kts 184°
2026-05-04 01:21 44.98504 3.16734 37023 ft 437 kts 184°
2026-05-04 01:21 44.92393 3.16654 37024 ft 437 kts 184°
2026-05-04 01:22 44.86329 3.16575 37027 ft 438 kts 184°
2026-05-04 01:22 44.80234 3.16494 37030 ft 438 kts 184°
2026-05-04 01:23 44.74136 3.16415 37028 ft 438 kts 184°
2026-05-04 01:23 44.68028 3.16336 37031 ft 438 kts 184°
2026-05-04 01:24 44.61948 3.16257 37029 ft 438 kts 184°
2026-05-04 01:24 44.55824 3.16279 37016 ft 438 kts 182°
2026-05-04 01:25 44.49759 3.16389 37029 ft 440 kts 182°
2026-05-04 01:25 44.43613 3.16504 37029 ft 440 kts 182°
2026-05-04 01:26 44.37492 3.16609 37010 ft 440 kts 182°
2026-05-04 01:26 44.31367 3.16707 37034 ft 441 kts 182°
2026-05-04 01:27 44.25221 3.16801 37027 ft 441 kts 182°
2026-05-04 01:27 44.19067 3.16896 37025 ft 441 kts 182°
2026-05-04 01:28 44.12946 3.16991 37025 ft 441 kts 182°
2026-05-04 01:28 44.06801 3.16799 37029 ft 440 kts 187°
2026-05-04 01:29 44.00720 3.16143 37028 ft 439 kts 188°
2026-05-04 01:29 43.94633 3.15404 37024 ft 439 kts 188°
2026-05-04 01:30 43.88541 3.14662 37029 ft 439 kts 188°
2026-05-04 01:30 43.82457 3.13933 37033 ft 439 kts 188°
2026-05-04 01:31 43.76409 3.13215 37032 ft 439 kts 188°
2026-05-04 01:31 43.70318 3.12493 37027 ft 439 kts 188°
2026-05-04 01:32 43.64208 3.11764 37029 ft 440 kts 188°
2026-05-04 01:32 43.58109 3.11051 37001 ft 440 kts 188°
2026-05-04 01:33 43.52008 3.10335 37011 ft 441 kts 188°
2026-05-04 01:33 43.45879 3.09615 37007 ft 441 kts 188°
2026-05-04 01:34 43.39789 3.08901 37003 ft 441 kts 188°
2026-05-04 01:34 43.33664 3.08184 37011 ft 441 kts 188°
2026-05-04 01:35 43.27539 3.07469 37008 ft 441 kts 188°
2026-05-04 01:35 43.21436 3.06759 36988 ft 442 kts 188°
2026-05-04 01:36 43.15325 3.06048 36999 ft 442 kts 188°
2026-05-04 01:36 43.09191 3.05335 36997 ft 443 kts 188°
2026-05-04 01:37 43.03055 3.04625 36985 ft 443 kts 188°
2026-05-04 01:37 42.96909 3.03916 36971 ft 443 kts 188°
2026-05-04 01:38 42.90748 3.03206 36982 ft 443 kts 188°
2026-05-04 01:38 42.84610 3.02499 36968 ft 443 kts 188°
2026-05-04 01:39 42.78484 3.01795 36962 ft 444 kts 188°
2026-05-04 01:39 42.72294 3.01085 36970 ft 443 kts 188°
2026-05-04 01:40 42.66157 3.00383 36967 ft 443 kts 188°
2026-05-04 01:40 42.60043 2.99685 36970 ft 443 kts 188°
2026-05-04 01:41 42.53891 2.98984 36971 ft 443 kts 188°
2026-05-04 01:41 42.47737 2.98464 36973 ft 445 kts 183°
2026-05-04 01:42 42.41529 2.98806 36967 ft 446 kts 181°
2026-05-04 01:42 42.35340 2.99315 36965 ft 446 kts 181°
2026-05-04 01:43 42.29161 2.99847 36977 ft 445 kts 181°
2026-05-04 01:43 42.23027 3.00359 36978 ft 445 kts 181°
2026-05-04 01:44 42.16845 3.00864 36974 ft 444 kts 181°
2026-05-04 01:44 42.10657 3.01364 36977 ft 446 kts 181°
2026-05-04 01:45 42.04461 3.01864 36975 ft 447 kts 181°
2026-05-04 01:45 41.95132 3.02619 36978 ft 447 kts 181°
2026-05-04 01:46 41.88942 3.03118 36986 ft 449 kts 181°
2026-05-04 01:46 41.82659 3.03623 36979 ft 450 kts 181°
2026-05-04 01:47 41.76438 3.04124 36983 ft 450 kts 181°
2026-05-04 01:47 41.70176 3.04626 36989 ft 450 kts 181°
2026-05-04 01:48 41.63923 3.05126 36983 ft 451 kts 181°
2026-05-04 01:48 41.57664 3.05625 36986 ft 451 kts 181°
2026-05-04 01:49 41.51417 3.06123 36963 ft 451 kts 182°
2026-05-04 01:49 41.45116 3.06624 36992 ft 452 kts 182°
2026-05-04 01:50 41.38834 3.07122 36994 ft 452 kts 182°
2026-05-04 01:50 41.32570 3.07619 36992 ft 452 kts 182°
2026-05-04 01:51 41.26286 3.08116 36992 ft 452 kts 182°
2026-05-04 01:51 41.19997 3.08612 36997 ft 452 kts 182°
2026-05-04 01:52 41.13728 3.09106 36995 ft 452 kts 182°
2026-05-04 01:52 41.07448 3.09600 36994 ft 452 kts 182°
2026-05-04 01:53 41.01200 3.10090 36996 ft 452 kts 182°
2026-05-04 01:53 40.94901 3.10583 36998 ft 452 kts 182°
2026-05-04 01:54 40.88651 3.11071 36999 ft 452 kts 182°
2026-05-04 01:54 40.82356 3.11562 36998 ft 452 kts 183°
2026-05-04 01:55 40.76062 3.12052 36998 ft 452 kts 183°
2026-05-04 01:55 40.69775 3.12540 36997 ft 452 kts 183°
2026-05-04 01:56 40.63532 3.13024 37000 ft 452 kts 183°
2026-05-04 01:56 40.57239 3.13512 37001 ft 452 kts 183°
2026-05-04 01:57 40.50932 3.13977 36995 ft 450 kts 186°
2026-05-04 01:57 40.44712 3.13845 36999 ft 448 kts 188°
2026-05-04 01:58 40.38493 3.13572 36997 ft 446 kts 189°
2026-05-04 01:58 40.32273 3.13271 37001 ft 446 kts 189°
2026-05-04 01:59 40.26121 3.12979 36999 ft 446 kts 189°
2026-05-04 01:59 40.19889 3.12691 36974 ft 445 kts 189°
2026-05-04 02:00 40.13728 3.12413 37005 ft 444 kts 189°
2026-05-04 02:00 40.08602 3.12180 37008 ft 444 kts 189°
2026-05-04 02:01 40.02374 3.11896 37003 ft 444 kts 189°
2026-05-04 02:01 39.96242 3.11617 37003 ft 444 kts 189°
2026-05-04 02:02 39.90047 3.11441 37006 ft 447 kts 187°
2026-05-04 02:02 39.83793 3.11567 37011 ft 448 kts 186°
2026-05-04 02:03 39.77551 3.11745 37012 ft 448 kts 187°
2026-05-04 02:03 39.71310 3.11898 37011 ft 448 kts 187°
2026-05-04 02:04 39.65099 3.12031 37012 ft 448 kts 187°
2026-05-04 02:04 39.58843 3.12156 37014 ft 448 kts 187°
2026-05-04 02:05 39.52651 3.12281 36999 ft 448 kts 187°
2026-05-04 02:05 39.46387 3.12409 37016 ft 447 kts 187°
2026-05-04 02:06 39.40204 3.12535 37020 ft 447 kts 187°
2026-05-04 02:06 39.33979 3.12661 37015 ft 447 kts 187°
2026-05-04 02:07 39.27757 3.12788 37021 ft 447 kts 187°
2026-05-04 02:07 39.21513 3.12914 37008 ft 447 kts 187°
2026-05-04 02:08 39.15282 3.13040 37007 ft 448 kts 187°
2026-05-04 02:08 39.09077 3.13166 37017 ft 448 kts 187°
2026-05-04 02:09 39.02828 3.13297 37010 ft 448 kts 187°
2026-05-04 02:09 38.96577 3.13426 37013 ft 448 kts 187°
2026-05-04 02:10 38.90392 3.13552 37011 ft 448 kts 187°
2026-05-04 02:10 38.84135 3.13677 36987 ft 448 kts 187°
2026-05-04 02:11 38.77901 3.13801 37019 ft 450 kts 187°
2026-05-04 02:11 38.71643 3.13926 37006 ft 450 kts 187°
2026-05-04 02:12 38.65375 3.14052 37010 ft 450 kts 187°
2026-05-04 02:12 38.59145 3.14178 37017 ft 450 kts 187°
2026-05-04 02:13 38.52915 3.14303 37014 ft 451 kts 187°
2026-05-04 02:13 38.46598 3.14430 37015 ft 451 kts 187°
2026-05-04 02:14 38.40373 3.14556 37016 ft 451 kts 187°
2026-05-04 02:14 38.34057 3.14683 37016 ft 451 kts 187°
2026-05-04 02:15 38.27782 3.15422 37014 ft 464 kts 176°
2026-05-04 02:15 38.21464 3.17340 37018 ft 468 kts 174°
2026-05-04 02:16 38.15161 3.19473 37020 ft 469 kts 173°
2026-05-04 02:16 38.08835 3.21482 37024 ft 466 kts 176°
2026-05-04 02:17 38.02523 3.23246 37020 ft 465 kts 176°
2026-05-04 02:17 37.96218 3.24971 37022 ft 465 kts 176°
2026-05-04 02:18 37.89872 3.26725 36999 ft 466 kts 176°
2026-05-04 02:18 37.83568 3.28481 37020 ft 465 kts 176°
2026-05-04 02:19 37.77232 3.30247 37018 ft 465 kts 176°
2026-05-04 02:19 37.70895 3.32010 37021 ft 465 kts 176°
2026-05-04 02:20 37.64591 3.33760 37008 ft 466 kts 176°
2026-05-04 02:20 37.58243 3.35517 37022 ft 466 kts 176°
2026-05-04 02:21 37.51922 3.37266 37019 ft 465 kts 176°
2026-05-04 02:21 37.45586 3.39015 37018 ft 465 kts 176°
2026-05-04 02:22 37.39262 3.40757 37020 ft 466 kts 176°
2026-05-04 02:22 37.32940 3.42496 37018 ft 466 kts 176°
2026-05-04 02:23 37.26609 3.44235 37022 ft 466 kts 176°
2026-05-04 02:23 37.20269 3.45974 37017 ft 466 kts 176°
2026-05-04 02:24 37.13956 3.47701 37016 ft 467 kts 176°
2026-05-04 02:24 37.07592 3.49438 37019 ft 468 kts 176°
2026-05-04 02:25 37.01220 3.51177 37020 ft 468 kts 176°
2026-05-04 02:25 36.94849 3.52913 37022 ft 468 kts 176°
2026-05-04 02:26 36.88473 3.54645 37024 ft 469 kts 175°
2026-05-04 02:26 36.82108 3.56371 37027 ft 470 kts 175°
2026-05-04 02:27 36.75700 3.57884 37018 ft 466 kts 179°
2026-05-04 02:27 36.69262 3.58978 37005 ft 465 kts 180°
2026-05-04 02:28 36.62858 3.60010 37038 ft 466 kts 180°
2026-05-04 02:28 36.56450 3.61090 37039 ft 466 kts 180°
2026-05-04 02:29 36.50023 3.62198 37044 ft 466 kts 179°
2026-05-04 02:29 36.43619 3.63309 37029 ft 466 kts 179°
2026-05-04 02:30 36.37177 3.64425 37071 ft 467 kts 179°
2026-05-04 02:30 36.30734 3.65538 37064 ft 467 kts 179°
2026-05-04 02:31 36.24337 3.66639 37076 ft 467 kts 179°
2026-05-04 02:31 36.17884 3.67746 37072 ft 467 kts 179°
2026-05-04 02:32 36.11435 3.68852 37092 ft 468 kts 179°
2026-05-04 02:32 36.05012 3.69951 37084 ft 468 kts 179°
2026-05-04 02:33 35.98556 3.71056 37095 ft 468 kts 179°
2026-05-04 02:33 35.92096 3.72159 37093 ft 469 kts 179°
2026-05-04 02:34 35.85604 3.73266 37098 ft 469 kts 179°
2026-05-04 02:34 35.79185 3.74359 37101 ft 469 kts 179°
2026-05-04 02:35 35.72720 3.75457 37097 ft 469 kts 179°
2026-05-04 02:35 35.66255 3.76554 37094 ft 468 kts 179°
2026-05-04 02:36 35.59797 3.77648 37095 ft 468 kts 179°
2026-05-04 02:36 35.53366 3.78736 37094 ft 468 kts 179°
2026-05-04 02:37 35.46902 3.79828 37088 ft 468 kts 179°
2026-05-04 02:37 35.40441 3.80918 37095 ft 468 kts 179°
2026-05-04 02:38 35.33981 3.82006 37096 ft 468 kts 179°
2026-05-04 02:38 35.27559 3.83085 37100 ft 468 kts 179°
2026-05-04 02:39 35.21095 3.84169 37098 ft 468 kts 179°
2026-05-04 02:39 35.14609 3.85256 37093 ft 468 kts 179°
2026-05-04 02:40 35.08175 3.86333 37100 ft 468 kts 179°
2026-05-04 02:40 35.01718 3.87411 37104 ft 468 kts 179°
2026-05-04 02:41 34.95297 3.88483 37106 ft 468 kts 179°
2026-05-04 02:41 34.88845 3.89557 37102 ft 468 kts 179°
2026-05-04 02:42 34.82384 3.90630 37112 ft 469 kts 179°
2026-05-04 02:42 34.75912 3.91705 37112 ft 469 kts 179°
2026-05-04 02:43 34.69421 3.92781 37113 ft 469 kts 179°
2026-05-04 02:43 34.62979 3.93846 37120 ft 470 kts 179°
2026-05-04 02:44 34.56495 3.94917 37121 ft 470 kts 179°
2026-05-04 02:44 34.50015 3.95986 37124 ft 470 kts 179°
2026-05-04 02:45 34.43513 3.97056 37121 ft 471 kts 179°
2026-05-04 02:45 34.37011 3.98126 37132 ft 471 kts 179°
2026-05-04 02:46 34.30498 3.99195 37111 ft 471 kts 179°
2026-05-04 02:46 34.24027 4.00256 37108 ft 472 kts 179°
2026-05-04 02:47 34.17516 4.01322 37129 ft 471 kts 179°
2026-05-04 02:47 34.11030 4.02267 37121 ft 467 kts 184°
2026-05-04 02:48 34.04612 4.01843 37117 ft 459 kts 192°
2026-05-04 02:48 33.99351 4.01112 37114 ft 458 kts 194°
2026-05-04 02:49 33.91979 3.99982 37113 ft 458 kts 194°
2026-05-04 02:49 33.85663 3.99026 37111 ft 458 kts 194°
2026-05-04 02:50 33.80355 3.98239 37115 ft 459 kts 194°
2026-05-04 02:50 33.74065 3.97316 37114 ft 459 kts 194°
2026-05-04 02:51 33.67724 3.96387 37113 ft 459 kts 194°
2026-05-04 02:51 33.61376 3.95458 37093 ft 459 kts 194°
2026-05-04 02:52 33.55008 3.94529 37116 ft 459 kts 194°
2026-05-04 02:52 33.48668 3.93604 37117 ft 458 kts 194°
2026-05-04 02:53 33.42381 3.92687 37110 ft 458 kts 194°
2026-05-04 02:53 33.36001 3.91758 37109 ft 459 kts 194°
2026-05-04 02:54 33.29682 3.90840 37117 ft 458 kts 194°
2026-05-04 02:54 33.23382 3.89925 37111 ft 459 kts 194°
2026-05-04 02:55 33.13844 3.88544 37112 ft 458 kts 194°
2026-05-04 02:56 33.07551 3.87634 37107 ft 458 kts 193°
2026-05-04 02:56 33.01213 3.86718 37111 ft 458 kts 193°
2026-05-04 02:57 32.94877 3.85799 37106 ft 458 kts 193°
2026-05-04 02:57 32.88527 3.84877 37107 ft 458 kts 193°
2026-05-04 02:58 32.82232 3.83965 37082 ft 458 kts 193°
2026-05-04 02:58 32.75890 3.83049 37101 ft 458 kts 193°
2026-05-04 02:59 32.69549 3.82133 37108 ft 458 kts 193°
2026-05-04 02:59 32.63243 3.81224 37115 ft 458 kts 193°
2026-05-04 03:00 32.56935 3.80316 37119 ft 458 kts 193°
2026-05-04 03:00 32.50587 3.79404 37130 ft 458 kts 193°
2026-05-04 03:01 32.44257 3.78496 37131 ft 458 kts 193°
2026-05-04 03:01 32.37836 3.78201 37128 ft 470 kts 181°
2026-05-04 03:02 32.31309 3.79189 37090 ft 473 kts 178°
2026-05-04 03:02 32.24805 3.80409 37088 ft 474 kts 177°
2026-05-04 03:03 32.18315 3.81651 37084 ft 473 kts 178°
2026-05-04 03:03 32.11843 3.82862 37086 ft 473 kts 178°
2026-05-04 03:04 32.05328 3.84062 37087 ft 473 kts 178°
2026-05-04 03:04 31.98817 3.85256 37097 ft 473 kts 178°
2026-05-04 03:05 31.92306 3.86449 37097 ft 473 kts 178°
2026-05-04 03:05 31.85817 3.87638 37075 ft 473 kts 178°
2026-05-04 03:06 31.79339 3.88822 37074 ft 473 kts 178°
2026-05-04 03:06 31.72780 3.90020 37069 ft 473 kts 178°
2026-05-04 03:07 31.66289 3.91203 37074 ft 474 kts 178°
2026-05-04 03:07 31.59801 3.92384 37071 ft 474 kts 178°
2026-05-04 03:08 31.53251 3.93576 37071 ft 475 kts 178°
2026-05-04 03:08 31.46742 3.94758 37069 ft 474 kts 178°
2026-05-04 03:09 31.40187 3.95947 37067 ft 475 kts 178°
2026-05-04 03:09 31.33673 3.97127 37067 ft 475 kts 178°
2026-05-04 03:10 31.27139 3.98308 37067 ft 475 kts 178°
2026-05-04 03:10 31.20630 3.99484 37062 ft 475 kts 178°
2026-05-04 03:11 31.14093 4.00662 37063 ft 475 kts 178°
2026-05-04 03:11 31.07572 4.01836 37062 ft 475 kts 178°
2026-05-04 03:12 31.01039 4.03011 37056 ft 475 kts 178°
2026-05-04 03:12 30.94488 4.04188 37058 ft 475 kts 178°
2026-05-04 03:13 30.87993 4.05353 37036 ft 475 kts 178°
2026-05-04 03:13 30.81427 4.06527 37053 ft 476 kts 178°
2026-05-04 03:14 30.74878 4.07698 37060 ft 476 kts 178°
2026-05-04 03:14 30.68356 4.08864 37056 ft 476 kts 178°
2026-05-04 03:15 30.61816 4.10030 37050 ft 476 kts 178°
2026-05-04 03:15 30.55257 4.11198 37047 ft 476 kts 178°
2026-05-04 03:16 30.48714 4.12361 37044 ft 476 kts 178°
2026-05-04 03:16 30.42189 4.13520 37044 ft 476 kts 178°
2026-05-04 03:17 30.35621 4.14685 37045 ft 477 kts 178°
2026-05-04 03:17 30.29065 4.15847 37040 ft 476 kts 178°
2026-05-04 03:18 30.22500 4.17008 37043 ft 476 kts 178°
2026-05-04 03:18 30.15985 4.18159 37037 ft 476 kts 178°
2026-05-04 03:19 30.09443 4.19313 37035 ft 476 kts 178°
2026-05-04 03:19 30.02896 4.20466 37033 ft 477 kts 178°
2026-05-04 03:20 29.96315 4.21624 37031 ft 477 kts 178°
2026-05-04 03:20 29.89735 4.22780 37021 ft 477 kts 178°
2026-05-04 03:21 29.83164 4.23934 37026 ft 477 kts 178°
2026-05-04 03:21 29.76592 4.25085 37028 ft 477 kts 178°
2026-05-04 03:22 29.70018 4.26238 37018 ft 478 kts 178°
2026-05-04 03:22 29.63483 4.27400 37018 ft 478 kts 178°
2026-05-04 03:23 29.56910 4.28574 37021 ft 478 kts 178°
2026-05-04 03:23 29.50325 4.29749 37017 ft 479 kts 178°
2026-05-04 03:24 29.43724 4.30922 37011 ft 479 kts 178°
2026-05-04 03:24 29.37164 4.32085 37008 ft 480 kts 178°
2026-05-04 03:25 29.30562 4.33256 37009 ft 481 kts 178°
2026-05-04 03:25 29.23904 4.34436 37004 ft 481 kts 178°
2026-05-04 03:26 29.17288 4.35606 36988 ft 480 kts 178°
2026-05-04 03:26 29.10725 4.36763 37006 ft 482 kts 178°
2026-05-04 03:27 29.04071 4.37937 37002 ft 482 kts 178°
2026-05-04 03:27 28.97434 4.39106 37009 ft 482 kts 178°
2026-05-04 03:28 28.90789 4.40274 37001 ft 482 kts 178°
2026-05-04 03:28 28.84187 4.41433 37003 ft 483 kts 178°
2026-05-04 03:29 28.77550 4.42597 36992 ft 483 kts 178°
2026-05-04 03:29 28.70890 4.43764 36998 ft 483 kts 178°
2026-05-04 03:30 28.64287 4.44919 36990 ft 483 kts 178°
2026-05-04 03:30 28.57647 4.46079 36980 ft 483 kts 178°
2026-05-04 03:31 28.50969 4.47245 36996 ft 484 kts 178°
2026-05-04 03:31 28.44306 4.48427 36991 ft 484 kts 178°
2026-05-04 03:32 28.37640 4.49625 36987 ft 485 kts 178°
2026-05-04 03:32 28.31018 4.50815 36988 ft 484 kts 178°
2026-05-04 03:33 28.24338 4.52011 36981 ft 485 kts 178°
2026-05-04 03:33 28.17640 4.53206 36979 ft 487 kts 178°
2026-05-04 03:34 28.10993 4.54392 36993 ft 487 kts 178°
2026-05-04 03:34 28.04300 4.55585 36974 ft 487 kts 178°
2026-05-04 03:35 27.98722 4.56577 36959 ft 487 kts 178°
2026-05-04 03:35 27.90906 4.57966 36969 ft 487 kts 178°
2026-05-04 03:36 27.85297 4.58961 36970 ft 488 kts 178°
2026-05-04 03:36 27.78625 4.60143 36971 ft 488 kts 178°
2026-05-04 03:37 27.70820 4.61526 36964 ft 488 kts 178°
2026-05-04 03:37 27.65222 4.62516 36965 ft 488 kts 178°
2026-05-04 03:38 27.58533 4.63698 36963 ft 487 kts 178°
2026-05-04 03:38 27.51812 4.64883 36959 ft 488 kts 178°
2026-05-04 03:39 27.45077 4.66070 36956 ft 488 kts 178°
2026-05-04 03:39 27.38408 4.67243 36937 ft 487 kts 178°
2026-05-04 03:40 27.31704 4.68422 36945 ft 488 kts 178°
2026-05-04 03:40 27.24991 4.69600 36947 ft 488 kts 178°
2026-05-04 03:41 27.18284 4.70776 36950 ft 488 kts 178°
2026-05-04 03:41 27.11588 4.71948 36941 ft 488 kts 178°
2026-05-04 03:42 27.04897 4.73119 36936 ft 488 kts 178°
2026-05-04 03:42 26.98172 4.74294 36938 ft 488 kts 178°
2026-05-04 03:43 26.91458 4.75465 36932 ft 488 kts 178°
2026-05-04 03:43 26.84805 4.76624 36931 ft 488 kts 178°
2026-05-04 03:44 26.78069 4.77797 36909 ft 488 kts 178°
2026-05-04 03:44 26.71357 4.78965 36931 ft 488 kts 178°
2026-05-04 03:45 26.64654 4.80129 36922 ft 487 kts 178°
2026-05-04 03:45 26.57964 4.81289 36923 ft 488 kts 178°
2026-05-04 03:46 26.51261 4.82449 36920 ft 488 kts 178°
2026-05-04 03:46 26.44547 4.83610 36934 ft 488 kts 178°
2026-05-04 03:47 26.37813 4.84774 36920 ft 488 kts 178°
2026-05-04 03:47 26.31132 4.85928 36917 ft 488 kts 178°
2026-05-04 03:48 26.24437 4.87083 36924 ft 488 kts 178°
2026-05-04 03:48 26.17676 4.88246 36934 ft 488 kts 177°
2026-05-04 03:49 26.10978 4.89401 36940 ft 487 kts 178°
2026-05-04 03:49 26.04273 4.90550 36953 ft 488 kts 178°
2026-05-04 03:50 25.97601 4.91695 36952 ft 488 kts 178°
2026-05-04 03:50 25.90838 4.92855 36953 ft 488 kts 178°
2026-05-04 03:51 25.84175 4.93996 36952 ft 488 kts 178°
2026-05-04 03:51 25.77455 4.95146 36956 ft 487 kts 178°
2026-05-04 03:52 25.70785 4.96285 36953 ft 488 kts 178°
2026-05-04 03:52 25.64033 4.97436 36961 ft 488 kts 178°
2026-05-04 03:53 25.57299 4.98584 36960 ft 488 kts 178°
2026-05-04 03:53 25.50642 4.99718 36960 ft 488 kts 178°
2026-05-04 03:54 25.43913 5.00863 36959 ft 488 kts 178°
2026-05-04 03:54 25.37239 5.01996 36963 ft 488 kts 178°
2026-05-04 03:55 25.30517 5.03136 36947 ft 488 kts 178°
2026-05-04 03:55 25.23814 5.04272 36929 ft 488 kts 178°
2026-05-04 03:56 25.17126 5.05405 36950 ft 487 kts 178°
2026-05-04 03:56 25.10401 5.06543 36952 ft 486 kts 178°
2026-05-04 03:57 25.03751 5.07665 36951 ft 486 kts 178°
2026-05-04 03:57 24.97043 5.08796 36946 ft 487 kts 178°
2026-05-04 03:58 24.87003 5.10489 36948 ft 486 kts 179°
2026-05-04 03:58 24.80311 5.11616 36949 ft 485 kts 179°
2026-05-04 03:59 24.73626 5.12739 36951 ft 485 kts 179°
2026-05-04 03:59 24.66946 5.13861 36951 ft 485 kts 179°
2026-05-04 04:00 24.60243 5.14985 36953 ft 485 kts 179°
2026-05-04 04:00 24.53618 5.16095 36963 ft 485 kts 179°
2026-05-04 04:01 24.46941 5.17212 36956 ft 486 kts 179°
2026-05-04 04:01 24.40219 5.18335 36962 ft 485 kts 179°
2026-05-04 04:02 24.33542 5.19451 36963 ft 485 kts 179°
2026-05-04 04:02 24.26877 5.20562 36959 ft 485 kts 179°
2026-05-04 04:03 24.20196 5.21676 36970 ft 485 kts 179°
2026-05-04 04:03 24.13486 5.22793 36968 ft 484 kts 179°
2026-05-04 04:04 24.06806 5.23904 36972 ft 485 kts 179°
2026-05-04 04:04 24.00138 5.25011 36972 ft 485 kts 179°
2026-05-04 04:05 23.93481 5.26115 36974 ft 485 kts 179°
2026-05-04 04:05 23.86791 5.27224 36975 ft 486 kts 179°
2026-05-04 04:06 23.80101 5.28332 36974 ft 486 kts 179°
2026-05-04 04:06 23.73489 5.29427 36979 ft 486 kts 179°
2026-05-04 04:07 23.66832 5.30527 36975 ft 485 kts 179°
2026-05-04 04:07 23.60150 5.31630 36983 ft 485 kts 179°
2026-05-04 04:08 23.53455 5.32734 36982 ft 485 kts 179°
2026-05-04 04:08 23.46837 5.33825 37007 ft 485 kts 179°
2026-05-04 04:09 23.40129 5.34929 37006 ft 485 kts 179°
2026-05-04 04:09 23.33453 5.36026 36983 ft 485 kts 179°
2026-05-04 04:10 23.26770 5.37124 37006 ft 484 kts 179°
2026-05-04 04:10 23.20124 5.38215 37005 ft 484 kts 179°
2026-05-04 04:11 23.13460 5.39308 37020 ft 484 kts 179°
2026-05-04 04:11 23.06825 5.40394 37057 ft 483 kts 179°
2026-05-04 04:12 23.00180 5.41480 37097 ft 483 kts 179°
2026-05-04 04:12 22.93531 5.42567 37135 ft 482 kts 179°
2026-05-04 04:13 22.86895 5.43650 37160 ft 482 kts 179°
2026-05-04 04:13 22.80298 5.45039 37156 ft 492 kts 169°
2026-05-04 04:14 22.73882 5.47590 37160 ft 496 kts 165°
2026-05-04 04:14 22.67465 5.50395 37103 ft 496 kts 165°
2026-05-04 04:15 22.61073 5.53228 37067 ft 494 kts 165°
2026-05-04 04:15 22.54728 5.56014 37022 ft 494 kts 165°
2026-05-04 04:16 22.48360 5.58789 36950 ft 494 kts 165°
2026-05-04 04:16 22.41966 5.61569 36949 ft 494 kts 165°
2026-05-04 04:17 22.35607 5.64332 36915 ft 494 kts 165°
2026-05-04 04:17 22.29226 5.67102 36935 ft 493 kts 165°
2026-05-04 04:18 22.22863 5.69862 36937 ft 493 kts 165°
2026-05-04 04:18 22.16508 5.72615 36926 ft 493 kts 165°
2026-05-04 04:19 22.10119 5.75380 36929 ft 493 kts 165°
2026-05-04 04:19 22.03790 5.78116 36921 ft 494 kts 165°
2026-05-04 04:20 21.97419 5.80869 36917 ft 493 kts 165°
2026-05-04 04:20 21.91047 5.83620 36912 ft 493 kts 165°
2026-05-04 04:21 21.84671 5.86369 36915 ft 493 kts 165°
2026-05-04 04:21 21.78322 5.89104 36908 ft 493 kts 165°
2026-05-04 04:22 21.71953 5.91845 36901 ft 493 kts 165°
2026-05-04 04:22 21.66646 5.94127 36907 ft 492 kts 165°
2026-05-04 04:23 21.60279 5.96863 36909 ft 491 kts 165°
2026-05-04 04:23 21.53951 5.99580 36910 ft 491 kts 165°
2026-05-04 04:24 21.47607 6.02299 36906 ft 491 kts 165°
2026-05-04 04:24 21.41271 6.05013 36903 ft 491 kts 165°
2026-05-04 04:25 21.34884 6.07747 36898 ft 491 kts 165°
2026-05-04 04:25 21.28573 6.10446 36895 ft 491 kts 165°
2026-05-04 04:26 21.22238 6.13152 36893 ft 491 kts 165°
2026-05-04 04:26 21.15853 6.15877 36888 ft 491 kts 165°
2026-05-04 04:27 21.09505 6.18584 36889 ft 491 kts 165°
2026-05-04 04:27 21.03223 6.21261 36893 ft 491 kts 165°
2026-05-04 04:28 20.96900 6.23952 36882 ft 490 kts 165°
2026-05-04 04:28 20.90555 6.26650 36882 ft 490 kts 165°
2026-05-04 04:29 20.84224 6.29340 36878 ft 490 kts 165°
2026-05-04 04:29 20.77895 6.32026 36877 ft 490 kts 165°
2026-05-04 04:30 20.71564 6.34711 36873 ft 490 kts 165°
2026-05-04 04:30 20.65218 6.37400 36873 ft 490 kts 165°
2026-05-04 04:31 20.58866 6.40089 36867 ft 490 kts 165°
2026-05-04 04:31 20.52538 6.42766 36870 ft 490 kts 165°
2026-05-04 04:32 20.46183 6.45451 36870 ft 490 kts 165°
2026-05-04 04:32 20.39844 6.48127 36869 ft 490 kts 165°
2026-05-04 04:33 20.33487 6.50809 36854 ft 490 kts 166°
2026-05-04 04:33 20.27154 6.53479 36863 ft 489 kts 166°
2026-05-04 04:34 20.20811 6.56150 36859 ft 489 kts 166°
2026-05-04 04:34 20.14413 6.58215 36855 ft 474 kts 179°
2026-05-04 04:35 20.11156 6.58474 36857 ft 463 kts 188°
2026-05-04 04:35 20.08030 6.58169 36859 ft 453 kts 198°
2026-05-04 04:35 20.02051 6.56251 36855 ft 444 kts 207°
2026-05-04 04:36 19.96329 6.53937 36860 ft 441 kts 208°
2026-05-04 04:36 19.90613 6.51575 36850 ft 441 kts 208°
2026-05-04 04:37 19.79162 6.46946 36851 ft 441 kts 207°
2026-05-04 04:38 19.73416 6.44647 36851 ft 441 kts 207°
2026-05-04 04:38 19.67678 6.42352 36821 ft 441 kts 207°
2026-05-04 04:39 19.61926 6.40052 36842 ft 441 kts 207°
2026-05-04 04:39 19.56185 6.37759 36843 ft 440 kts 207°
2026-05-04 04:40 19.50444 6.35466 36846 ft 440 kts 207°
2026-05-04 04:40 19.44722 6.33183 36841 ft 440 kts 207°
2026-05-04 04:41 19.38992 6.30898 36842 ft 440 kts 207°
2026-05-04 04:41 19.33247 6.28609 36839 ft 441 kts 206°
2026-05-04 04:42 19.27526 6.26330 36834 ft 442 kts 206°
2026-05-04 04:42 19.21722 6.24022 36834 ft 443 kts 206°
2026-05-04 04:43 19.16000 6.21748 36833 ft 443 kts 206°
2026-05-04 04:43 19.10225 6.19454 36827 ft 443 kts 206°
2026-05-04 04:44 19.04458 6.17166 36832 ft 443 kts 206°
2026-05-04 04:44 18.98695 6.14880 36820 ft 443 kts 206°
2026-05-04 04:45 18.92901 6.12584 36830 ft 443 kts 206°
2026-05-04 04:47 18.72763 6.04615 36825 ft 443 kts 206°
2026-05-04 04:47 18.66982 6.02332 36812 ft 443 kts 206°
2026-05-04 04:48 18.61179 6.00041 36829 ft 443 kts 206°
2026-05-04 04:49 18.46759 5.94357 36831 ft 443 kts 206°
2026-05-04 04:49 18.40973 5.92078 36821 ft 443 kts 206°
2026-05-04 04:50 18.35198 5.89806 36825 ft 443 kts 206°
2026-05-04 04:50 18.29404 5.87527 36817 ft 445 kts 205°
2026-05-04 04:51 18.23605 5.85248 36817 ft 446 kts 205°
2026-05-04 04:51 18.17812 5.82974 36816 ft 446 kts 205°
2026-05-04 04:52 18.12000 5.80695 36826 ft 446 kts 205°
2026-05-04 04:52 18.06179 5.78413 36825 ft 445 kts 205°
2026-05-04 04:53 18.00378 5.76140 36825 ft 446 kts 205°
2026-05-04 04:53 17.94562 5.73863 36827 ft 445 kts 205°
2026-05-04 04:54 17.88777 5.71600 36829 ft 445 kts 205°
2026-05-04 04:54 17.82980 5.69334 36840 ft 445 kts 205°
2026-05-04 04:55 17.77188 5.67072 36823 ft 445 kts 205°
2026-05-04 04:55 17.71397 5.64811 36840 ft 445 kts 205°
2026-05-04 04:56 17.65593 5.62547 36806 ft 445 kts 205°
2026-05-04 04:56 17.59781 5.60280 36814 ft 446 kts 205°
2026-05-04 04:57 17.53962 5.58013 36829 ft 447 kts 205°
2026-05-04 04:57 17.48105 5.55733 36824 ft 447 kts 205°
2026-05-04 04:58 17.42292 5.53472 36824 ft 447 kts 205°
2026-05-04 04:58 17.36458 5.51204 36822 ft 447 kts 205°
2026-05-04 04:59 17.30641 5.48944 36816 ft 447 kts 205°
2026-05-04 04:59 17.24793 5.46673 36826 ft 448 kts 205°
2026-05-04 05:00 17.18945 5.44404 36825 ft 449 kts 205°
2026-05-04 05:01 17.10197 5.41014 36829 ft 448 kts 205°
2026-05-04 05:01 17.04351 5.38749 36827 ft 448 kts 205°
2026-05-04 05:02 16.98492 5.36481 36826 ft 449 kts 205°
2026-05-04 05:02 16.92634 5.34215 36827 ft 448 kts 205°
2026-05-04 05:03 16.86794 5.31959 36824 ft 448 kts 205°
2026-05-04 05:04 16.75113 5.27448 36825 ft 447 kts 205°
2026-05-04 05:04 16.69283 5.25199 36825 ft 448 kts 205°
2026-05-04 05:06 16.45994 5.16228 36826 ft 446 kts 204°
2026-05-04 05:07 16.40156 5.13983 36831 ft 448 kts 204°
2026-05-04 05:07 16.34287 5.11726 36833 ft 449 kts 204°
2026-05-04 05:09 16.07988 5.01638 36841 ft 448 kts 204°
2026-05-04 05:10 16.03098 4.99766 36841 ft 448 kts 204°
2026-05-04 05:10 15.97264 4.97533 36844 ft 448 kts 204°
2026-05-04 05:11 15.91395 4.95288 36852 ft 448 kts 204°
2026-05-04 05:11 15.85527 4.93044 36850 ft 449 kts 204°
2026-05-04 05:12 15.79647 4.90797 36848 ft 450 kts 204°
2026-05-04 05:12 15.73827 4.88576 36849 ft 450 kts 204°
2026-05-04 05:13 15.67991 4.86349 36847 ft 450 kts 204°
2026-05-04 05:13 15.62092 4.84100 36847 ft 450 kts 204°
2026-05-04 05:14 15.56203 4.81855 36848 ft 451 kts 204°
2026-05-04 05:14 15.50301 4.79606 36849 ft 453 kts 204°
2026-05-04 05:15 15.44383 4.77354 36850 ft 454 kts 204°
2026-05-04 05:15 15.38486 4.75111 36852 ft 454 kts 204°
2026-05-04 05:16 15.32536 4.72850 36853 ft 453 kts 204°
2026-05-04 05:16 15.26614 4.70599 36851 ft 453 kts 204°
2026-05-04 05:17 15.20684 4.68348 36848 ft 454 kts 204°
2026-05-04 05:17 15.14760 4.66099 36851 ft 454 kts 204°
2026-05-04 05:18 15.08852 4.63859 36856 ft 454 kts 204°
2026-05-04 05:18 15.02955 4.61624 36851 ft 454 kts 204°
2026-05-04 05:19 14.97197 4.58992 36856 ft 448 kts 214°
2026-05-04 05:19 14.92469 4.54901 36857 ft 441 kts 232°
2026-05-04 05:20 14.88963 4.49751 36853 ft 439 kts 238°
2026-05-04 05:20 14.85733 4.44396 36858 ft 439 kts 239°
2026-05-04 05:21 14.82524 4.39013 36864 ft 439 kts 239°
2026-05-04 05:21 14.79318 4.33695 36858 ft 440 kts 239°
2026-05-04 05:22 14.76062 4.28335 36860 ft 440 kts 239°
2026-05-04 05:22 14.72793 4.22968 36855 ft 440 kts 239°
2026-05-04 05:23 14.69539 4.17627 36862 ft 440 kts 239°
2026-05-04 05:23 14.66282 4.12283 36859 ft 439 kts 239°
2026-05-04 05:24 14.63042 4.06971 36861 ft 439 kts 239°
2026-05-04 05:24 14.59768 4.01604 36859 ft 439 kts 239°
2026-05-04 05:25 14.56536 3.96311 36860 ft 439 kts 239°
2026-05-04 05:25 14.53277 3.90977 36865 ft 439 kts 239°
2026-05-04 05:26 14.50028 3.85663 36862 ft 439 kts 239°
2026-05-04 05:26 14.46773 3.80343 36860 ft 439 kts 239°
2026-05-04 05:28 14.33720 3.59045 36858 ft 439 kts 239°
2026-05-04 05:29 14.30449 3.53716 36861 ft 439 kts 239°
2026-05-04 05:29 14.27185 3.48401 36852 ft 439 kts 239°
2026-05-04 05:31 14.14112 3.27153 36856 ft 440 kts 239°
2026-05-04 05:32 14.10827 3.21822 36854 ft 440 kts 239°
2026-05-04 05:33 14.05888 3.13815 36855 ft 440 kts 239°
2026-05-04 05:33 14.02602 3.08490 36857 ft 441 kts 239°
2026-05-04 05:34 13.99309 3.03158 36850 ft 441 kts 239°
2026-05-04 05:34 13.96041 2.97871 36851 ft 440 kts 239°
2026-05-04 05:35 13.92737 2.92528 36848 ft 440 kts 239°
2026-05-04 05:35 13.89454 2.87222 36850 ft 440 kts 239°
2026-05-04 05:36 13.86186 2.81945 36849 ft 440 kts 239°
2026-05-04 05:36 13.82903 2.76646 36848 ft 440 kts 239°
2026-05-04 05:37 13.79576 2.71280 36848 ft 443 kts 239°
2026-05-04 05:37 13.76259 2.65933 36850 ft 444 kts 239°
2026-05-04 05:38 13.71313 2.57968 36846 ft 442 kts 239°
2026-05-04 05:38 13.68007 2.52646 36846 ft 442 kts 239°
2026-05-04 05:39 13.63024 2.44632 36870 ft 442 kts 239°
2026-05-04 05:40 13.58058 2.36654 36866 ft 442 kts 239°
2026-05-04 05:40 13.54746 2.31337 36873 ft 442 kts 239°
2026-05-04 05:41 13.51446 2.26042 36898 ft 442 kts 239°
2026-05-04 05:41 13.47826 2.20969 36872 ft 444 kts 229°
2026-05-04 05:42 13.43072 2.16765 36873 ft 451 kts 220°
2026-05-04 05:42 13.38049 2.12876 36873 ft 453 kts 219°
2026-05-04 05:43 13.33010 2.09061 36870 ft 453 kts 219°
2026-05-04 05:45 13.12786 1.93592 36865 ft 453 kts 220°
2026-05-04 05:47 12.92311 1.77929 36886 ft 461 kts 219°
2026-05-04 05:47 12.87158 1.73993 36873 ft 461 kts 219°
2026-05-04 05:48 12.82015 1.70065 36890 ft 461 kts 219°
2026-05-04 05:48 12.76854 1.66127 36897 ft 461 kts 219°
2026-05-04 05:49 12.71732 1.62220 36906 ft 462 kts 219°
2026-05-04 05:49 12.66554 1.58272 36904 ft 463 kts 219°
2026-05-04 05:51 12.45889 1.42538 36913 ft 463 kts 219°
2026-05-04 05:52 12.40717 1.38606 36923 ft 463 kts 219°
2026-05-04 05:52 12.35556 1.34683 36924 ft 464 kts 219°
2026-05-04 05:54 12.14788 1.18918 36918 ft 465 kts 219°
2026-05-04 05:55 12.09614 1.14995 36918 ft 465 kts 219°
2026-05-04 05:55 12.04412 1.11059 36927 ft 466 kts 219°
2026-05-04 05:56 12.00086 1.07790 36926 ft 467 kts 219°
2026-05-04 05:56 11.93994 1.03189 36931 ft 467 kts 219°
2026-05-04 05:57 11.89625 0.99890 36930 ft 467 kts 219°
2026-05-04 05:57 11.84402 0.95949 36928 ft 467 kts 219°
2026-05-04 05:58 11.79115 0.91960 36930 ft 467 kts 219°
2026-05-04 05:58 11.73892 0.88022 36923 ft 467 kts 219°
2026-05-04 05:59 11.68663 0.84081 36929 ft 467 kts 219°
2026-05-04 05:59 11.63420 0.80131 36926 ft 469 kts 218°
2026-05-04 06:00 11.58159 0.76171 36927 ft 471 kts 218°
2026-05-04 06:00 11.52896 0.72211 36924 ft 468 kts 218°
2026-05-04 06:01 11.47660 0.68272 36923 ft 467 kts 218°
2026-05-04 06:03 11.26762 0.52571 36910 ft 468 kts 218°
2026-05-04 06:05 11.03118 0.34843 36908 ft 468 kts 218°
2026-05-04 06:06 10.98154 0.30667 36909 ft 466 kts 224°
2026-05-04 06:06 10.93428 0.26155 36909 ft 466 kts 225°
2026-05-04 06:07 10.88746 0.21583 36907 ft 466 kts 225°
2026-05-04 06:07 10.84075 0.17017 36911 ft 466 kts 225°
2026-05-04 06:08 10.79390 0.12455 36914 ft 466 kts 225°
2026-05-04 06:08 10.74704 0.07900 36914 ft 466 kts 225°
2026-05-04 06:09 10.70037 0.03374 36912 ft 466 kts 224°
2026-05-04 06:11 10.45085 -0.02414 36917 ft 481 kts 181°
2026-05-04 06:13 10.18338 -0.02067 36919 ft 481 kts 182°
2026-05-04 06:14 9.94859 -0.01848 36929 ft 482 kts 182°
2026-05-04 06:15 9.88151 -0.01785 36931 ft 482 kts 182°
2026-05-04 06:15 9.81441 -0.01722 36934 ft 482 kts 182°
2026-05-04 06:16 9.74856 -0.01660 36936 ft 481 kts 182°
2026-05-04 06:16 9.68186 -0.01597 36942 ft 481 kts 182°
2026-05-04 06:17 9.61477 -0.01534 36938 ft 481 kts 182°
2026-05-04 06:17 9.54786 -0.01471 36939 ft 481 kts 182°
2026-05-04 06:18 9.48103 -0.01408 36942 ft 481 kts 182°
2026-05-04 06:20 9.21335 -0.01156 36947 ft 481 kts 182°
2026-05-04 06:21 9.04635 -0.01013 36947 ft 482 kts 181°
2026-05-04 06:22 8.97911 -0.00955 36949 ft 483 kts 181°
2026-05-04 06:25 8.51121 -0.01322 36951 ft 482 kts 185°
2026-05-04 06:26 8.44410 -0.01660 36946 ft 483 kts 185°
2026-05-04 06:26 8.37699 -0.01994 36952 ft 483 kts 185°
2026-05-04 06:27 8.21029 -0.02820 36954 ft 481 kts 185°
2026-05-04 06:28 8.14360 -0.03150 36956 ft 481 kts 185°
2026-05-04 06:28 8.07676 -0.03480 36955 ft 481 kts 185°
2026-05-04 06:29 8.00989 -0.03811 36951 ft 481 kts 185°
2026-05-04 06:29 7.94308 -0.04141 36955 ft 480 kts 184°
2026-05-04 06:30 7.87650 -0.04470 36961 ft 478 kts 184°
2026-05-04 06:30 7.81027 -0.04798 36962 ft 477 kts 184°
2026-05-04 06:31 7.74428 -0.05124 36961 ft 478 kts 184°
2026-05-04 06:31 7.67826 -0.05450 36962 ft 478 kts 184°
2026-05-04 06:33 7.41330 -0.06757 36964 ft 479 kts 184°
2026-05-04 06:34 7.34683 -0.07085 36967 ft 479 kts 184°